Time,TemperatureF,DewpointF,PressureIn,WindDirection,WindDirectionDegrees,WindSpeedMPH,WindSpeedGustMPH,Humidity,HourlyPrecipIn,Conditions,Clouds,dailyrainin,SoftwareType,DateUTC
2013-02-06 00:00:00,-5.0,-9.6,30.18,WSW,248,0.0,0.0,80,0.00,,,-99.99,Weather View 32 v60,2013-02-06 06:00:00,
2013-02-06 00:05:00,-5.0,-9.6,30.19,WSW,248,0.0,0.0,80,0.00,,,-99.99,Weather View 32 v60,2013-02-06 06:05:00,
2013-02-06 00:10:00,-6.0,-10.8,30.19,SW,225,0.0,0.0,79,0.00,,,-99.99,Weather View 32 v60,2013-02-06 06:10:00,
2013-02-06 00:15:00,-6.0,-10.6,30.19,SSW,202,0.0,0.0,80,0.00,,,-99.99,Weather View 32 v60,2013-02-06 06:15:00,
2013-02-06 00:20:00,-5.0,-9.6,30.19,SSW,202,0.0,0.0,80,0.00,,,-99.99,Weather View 32 v60,2013-02-06 06:20:00,
2013-02-06 00:25:00,-5.0,-9.3,30.19,SW,225,0.0,0.0,81,0.00,,,-99.99,Weather View 32 v60,2013-02-06 06:25:00,
2013-02-06 00:30:00,-5.0,-9.6,30.19,SW,225,0.0,0.0,80,0.00,,,-99.99,Weather View 32 v60,2013-02-06 06:30:00,
2013-02-06 00:35:00,-6.0,-10.6,30.19,SW,225,0.0,0.0,80,0.00,,,-99.99,Weather View 32 v60,2013-02-06 06:35:00,
2013-02-06 00:40:00,-6.0,-10.6,30.19,SW,225,0.0,0.0,80,0.00,,,-99.99,Weather View 32 v60,2013-02-06 06:40:00,
2013-02-06 00:45:00,-6.0,-10.6,30.19,WSW,248,0.0,0.0,80,0.00,,,-99.99,Weather View 32 v60,2013-02-06 06:45:00,
2013-02-06 00:50:00,-5.0,-9.6,30.19,SW,225,0.0,0.0,80,0.00,,,-99.99,Weather View 32 v60,2013-02-06 06:50:00,
2013-02-06 00:55:00,-5.0,-9.3,30.19,SW,225,0.0,0.0,81,0.00,,,-99.99,Weather View 32 v60,2013-02-06 06:55:00,
2013-02-06 01:00:00,-4.0,-8.3,30.19,SW,225,0.0,0.0,81,0.00,,,-99.99,Weather View 32 v60,2013-02-06 07:00:00,
2013-02-06 01:05:00,-4.0,-8.3,30.19,WSW,248,0.0,0.0,81,0.00,,,-99.99,Weather View 32 v60,2013-02-06 07:05:00,
2013-02-06 01:10:00,-3.0,-7.4,30.19,WSW,248,0.0,0.0,81,0.00,,,-99.99,Weather View 32 v60,2013-02-06 07:10:00,
2013-02-06 01:15:00,-3.0,-7.4,30.19,SW,225,0.0,0.0,81,0.00,,,-99.99,Weather View 32 v60,2013-02-06 07:15:00,
2013-02-06 01:20:00,-2.0,-6.4,30.19,WSW,248,0.0,0.0,81,0.00,,,-99.99,Weather View 32 v60,2013-02-06 07:20:00,
2013-02-06 01:25:00,-2.0,-6.4,30.19,WSW,248,0.0,0.0,81,0.00,,,-99.99,Weather View 32 v60,2013-02-06 07:25:00,
2013-02-06 01:30:00,-2.0,-6.4,30.19,SW,225,0.0,0.0,81,0.00,,,-99.99,Weather View 32 v60,2013-02-06 07:30:00,
2013-02-06 01:35:00,-1.0,-5.4,30.20,WSW,248,0.0,0.0,81,0.00,,,-99.99,Weather View 32 v60,2013-02-06 07:35:00,
2013-02-06 01:40:00,-1.0,-5.4,30.20,West,270,0.0,0.0,81,0.00,,,-99.99,Weather View 32 v60,2013-02-06 07:40:00,
2013-02-06 01:45:00,0.0,-4.4,30.20,WSW,248,0.0,0.0,81,0.00,,,-99.99,Weather View 32 v60,2013-02-06 07:45:00,
2013-02-06 01:50:00,0.0,-4.4,30.20,WSW,248,0.0,0.0,81,0.00,,,-99.99,Weather View 32 v60,2013-02-06 07:50:00,
2013-02-06 01:55:00,0.0,-4.4,30.20,SW,225,0.0,0.0,81,0.00,,,-99.99,Weather View 32 v60,2013-02-06 07:55:00,
2013-02-06 02:00:00,0.0,-4.4,30.19,SW,225,1.0,2.0,81,0.00,,,-99.99,Weather View 32 v60,2013-02-06 08:00:00,
2013-02-06 02:05:00,1.0,-3.5,30.19,SW,225,0.0,2.0,81,0.00,,,-99.99,Weather View 32 v60,2013-02-06 08:05:00,
2013-02-06 02:10:00,1.0,-3.5,30.19,SSW,202,1.0,3.0,81,0.00,,,-99.99,Weather View 32 v60,2013-02-06 08:10:00,
2013-02-06 02:15:00,1.0,-3.5,30.19,SW,225,0.0,3.0,81,0.00,,,-99.99,Weather View 32 v60,2013-02-06 08:15:00,
2013-02-06 02:20:00,2.0,-2.5,30.19,SSW,202,1.0,3.0,81,0.00,,,-99.99,Weather View 32 v60,2013-02-06 08:20:00,
2013-02-06 02:35:00,3.0,-1.5,30.18,SSW,202,0.0,3.0,81,0.00,,,-99.99,Weather View 32 v60,2013-02-06 08:35:00,
2013-02-06 02:40:00,3.0,-1.5,30.18,SW,225,0.0,3.0,81,0.00,,,-99.99,Weather View 32 v60,2013-02-06 08:40:00,
2013-02-06 02:45:00,3.0,-1.5,30.18,SW,225,0.0,3.0,81,0.00,,,-99.99,Weather View 32 v60,2013-02-06 08:45:00,
2013-02-06 02:50:00,3.0,-1.8,30.18,SSW,202,0.0,3.0,80,0.00,,,-99.99,Weather View 32 v60,2013-02-06 08:50:00,
2013-02-06 02:55:00,3.0,-1.8,30.17,SW,225,0.0,3.0,80,0.00,,,-99.99,Weather View 32 v60,2013-02-06 08:55:00,
2013-02-06 03:00:00,4.0,-0.8,30.17,SW,225,0.0,3.0,80,0.00,,,-99.99,Weather View 32 v60,2013-02-06 09:00:00,
2013-02-06 03:05:00,4.0,-0.8,30.17,SW,225,1.0,3.0,80,0.00,,,-99.99,Weather View 32 v60,2013-02-06 09:05:00,
2013-02-06 03:10:00,3.0,-1.8,30.17,SW,225,0.0,3.0,80,0.00,,,-99.99,Weather View 32 v60,2013-02-06 09:10:00,
2013-02-06 03:15:00,3.0,-1.8,30.17,SSW,202,1.0,3.0,80,0.00,,,-99.99,Weather View 32 v60,2013-02-06 09:15:00,
2013-02-06 03:20:00,3.0,-1.8,30.17,WSW,248,0.0,3.0,80,0.00,,,-99.99,Weather View 32 v60,2013-02-06 09:20:00,
2013-02-06 03:25:00,2.0,-2.5,30.18,SW,225,0.0,3.0,81,0.00,,,-99.99,Weather View 32 v60,2013-02-06 09:25:00,
2013-02-06 03:30:00,3.0,-1.5,30.18,SSW,202,0.0,3.0,81,0.00,,,-99.99,Weather View 32 v60,2013-02-06 09:30:00,
2013-02-06 03:35:00,3.0,-1.8,30.17,SW,225,0.0,3.0,80,0.00,,,-99.99,Weather View 32 v60,2013-02-06 09:35:00,
2013-02-06 03:40:00,2.0,-2.7,30.17,WSW,248,0.0,3.0,80,0.00,,,-99.99,Weather View 32 v60,2013-02-06 09:40:00,
2013-02-06 03:50:00,2.0,-2.7,30.17,SW,225,0.0,3.0,80,0.00,,,-99.99,Weather View 32 v60,2013-02-06 09:50:00,
2013-02-06 03:55:00,2.0,-2.7,30.17,SW,225,0.0,3.0,80,0.00,,,-99.99,Weather View 32 v60,2013-02-06 09:55:00,
2013-02-06 04:00:00,2.0,-2.7,30.17,SSE,158,1.0,3.0,80,0.00,,,-99.99,Weather View 32 v60,2013-02-06 10:00:00,
2013-02-06 04:15:00,1.0,-3.5,30.18,South,180,1.0,2.0,81,0.00,,,-99.99,Weather View 32 v60,2013-02-06 10:15:00,
2013-02-06 04:25:00,3.0,-1.8,30.17,SSW,202,1.0,3.0,80,0.00,,,-99.99,Weather View 32 v60,2013-02-06 10:25:00,
2013-02-06 04:30:00,3.0,-1.8,30.17,SW,225,0.0,3.0,80,0.00,,,-99.99,Weather View 32 v60,2013-02-06 10:30:00,
2013-02-06 04:45:00,2.0,-2.7,30.17,WSW,248,0.0,3.0,80,0.00,,,-99.99,Weather View 32 v60,2013-02-06 10:45:00,
2013-02-06 04:55:00,-1.0,-5.4,30.19,SW,225,0.0,1.0,81,0.00,,,-99.99,Weather View 32 v60,2013-02-06 10:55:00,
2013-02-06 04:57:00,2.0,-2.7,30.17,SW,225,0.0,3.0,80,0.00,,,-99.99,Weather View 32 v60,2013-02-06 10:57:00,
2013-02-06 05:00:00,-1.0,-5.4,30.19,SW,225,0.0,1.0,81,0.00,,,-99.99,Weather View 32 v60,2013-02-06 11:00:00,
2013-02-06 05:05:00,2.0,-2.5,30.17,SW,225,0.0,2.0,81,0.00,,,-99.99,Weather View 32 v60,2013-02-06 11:05:00,
2013-02-06 05:10:00,2.0,-2.5,30.17,SSW,202,0.0,2.0,81,0.00,,,-99.99,Weather View 32 v60,2013-02-06 11:10:00,
2013-02-06 05:20:00,1.0,-3.5,30.17,SSW,202,0.0,2.0,81,0.00,,,-99.99,Weather View 32 v60,2013-02-06 11:20:00,
2013-02-06 05:30:00,1.0,-3.5,30.18,WSW,248,0.0,1.0,81,0.00,,,-99.99,Weather View 32 v60,2013-02-06 11:30:00,
2013-02-06 05:35:00,0.0,-4.4,30.18,WSW,248,0.0,1.0,81,0.00,,,-99.99,Weather View 32 v60,2013-02-06 11:35:00,
2013-02-06 05:40:00,0.0,-4.4,30.18,SW,225,0.0,1.0,81,0.00,,,-99.99,Weather View 32 v60,2013-02-06 11:40:00,
2013-02-06 05:50:00,0.0,-4.4,30.18,NW,315,1.0,1.0,81,0.00,,,-99.99,Weather View 32 v60,2013-02-06 11:50:00,
2013-02-06 05:55:00,-1.0,-5.4,30.19,SW,225,0.0,1.0,81,0.00,,,-99.99,Weather View 32 v60,2013-02-06 11:55:00,
2013-02-06 06:05:00,-1.0,-5.2,30.19,SW,225,0.0,1.0,82,0.00,,,-99.99,Weather View 32 v60,2013-02-06 12:05:00,
2013-02-06 06:10:00,0.0,-3.9,30.19,SW,225,0.0,2.0,83,0.00,,,-99.99,Weather View 32 v60,2013-02-06 12:10:00,
2013-02-06 06:15:00,-1.0,-5.4,30.19,SW,225,0.0,1.0,81,0.00,,,-99.99,Weather View 32 v60,2013-02-06 12:15:00,
2013-02-06 06:20:00,-1.0,-5.4,30.18,SW,225,0.0,1.0,81,0.00,,,-99.99,Weather View 32 v60,2013-02-06 12:20:00,
2013-02-06 06:30:00,-1.0,-5.2,30.17,South,180,1.0,2.0,82,0.00,,,-99.99,Weather View 32 v60,2013-02-06 12:30:00,
2013-02-06 06:40:00,-1.0,-5.4,30.18,WSW,248,0.0,2.0,81,0.00,,,-99.99,Weather View 32 v60,2013-02-06 12:40:00,
2013-02-06 06:50:00,-2.0,-6.1,30.19,SSE,158,0.0,2.0,82,0.00,,,-99.99,Weather View 32 v60,2013-02-06 12:50:00,
2013-02-06 06:58:00,-1.0,-5.2,30.20,WSW,248,0.0,2.0,82,0.00,,,-99.99,Weather View 32 v60,2013-02-06 12:58:00,
2013-02-06 07:05:00,0.0,-3.9,30.19,West,270,0.0,2.0,83,0.00,,,-99.99,Weather View 32 v60,2013-02-06 13:05:00,
2013-02-06 07:15:00,0.0,-3.9,30.20,WSW,248,0.0,2.0,83,0.00,,,-99.99,Weather View 32 v60,2013-02-06 13:15:00,
2013-02-06 07:20:00,1.0,-2.9,30.20,WSW,248,0.0,2.0,83,0.00,,,-99.99,Weather View 32 v60,2013-02-06 13:20:00,
2013-02-06 07:25:00,1.0,-2.9,30.20,SW,225,1.0,2.0,83,0.00,,,-99.99,Weather View 32 v60,2013-02-06 13:25:00,
2013-02-06 07:35:00,1.0,-2.9,30.20,SSW,202,0.0,2.0,83,0.00,,,-99.99,Weather View 32 v60,2013-02-06 13:35:00,
2013-02-06 07:45:00,2.0,-2.2,30.20,SW,225,0.0,2.0,82,0.00,,,-99.99,Weather View 32 v60,2013-02-06 13:45:00,
2013-02-06 07:50:00,2.0,-2.2,30.20,SW,225,0.0,2.0,82,0.00,,,-99.99,Weather View 32 v60,2013-02-06 13:50:00,
2013-02-06 07:58:00,2.0,-2.2,30.19,SSW,202,1.0,2.0,82,0.00,,,-99.99,Weather View 32 v60,2013-02-06 13:58:00,
2013-02-06 08:05:00,3.0,-1.0,30.20,SW,225,0.0,3.0,83,0.00,,,-99.99,Weather View 32 v60,2013-02-06 14:05:00,
2013-02-06 08:10:00,4.0,0.0,30.19,SW,225,1.0,3.0,83,0.00,,,-99.99,Weather View 32 v60,2013-02-06 14:10:00,
2013-02-06 08:15:00,4.0,0.0,30.19,SW,225,0.0,3.0,83,0.00,,,-99.99,Weather View 32 v60,2013-02-06 14:15:00,
2013-02-06 08:20:00,5.0,1.0,30.19,ESE,112,1.0,3.0,83,0.00,,,-99.99,Weather View 32 v60,2013-02-06 14:20:00,
2013-02-06 08:25:00,5.0,1.0,30.18,South,180,5.0,5.0,83,0.00,,,-99.99,Weather View 32 v60,2013-02-06 14:25:00,
2013-02-06 08:30:00,6.0,2.0,30.18,SSW,202,1.0,5.0,83,0.00,,,-99.99,Weather View 32 v60,2013-02-06 14:30:00,
2013-02-06 08:35:00,7.0,2.9,30.18,SSW,202,3.0,5.0,83,0.00,,,-99.99,Weather View 32 v60,2013-02-06 14:35:00,
2013-02-06 08:40:00,8.0,4.2,30.18,SSW,202,3.0,5.0,84,0.00,,,-99.99,Weather View 32 v60,2013-02-06 14:40:00,
2013-02-06 08:45:00,9.0,5.2,30.19,SW,225,2.0,5.0,84,0.00,,,-99.99,Weather View 32 v60,2013-02-06 14:45:00,
2013-02-06 08:50:00,10.0,5.9,30.19,SSW,202,4.0,5.0,83,0.00,,,-99.99,Weather View 32 v60,2013-02-06 14:50:00,
2013-02-06 08:55:00,10.0,5.9,30.18,SSW,202,1.0,5.0,83,0.00,,,-99.99,Weather View 32 v60,2013-02-06 14:55:00,
2013-02-06 09:00:00,10.0,5.9,30.18,SSW,202,1.0,5.0,83,0.00,,,-99.99,Weather View 32 v60,2013-02-06 15:00:00,
2013-02-06 09:10:00,11.0,6.6,30.18,SSE,158,3.0,5.0,82,0.00,,,-99.99,Weather View 32 v60,2013-02-06 15:10:00,
2013-02-06 09:15:00,11.0,6.6,30.18,SSW,202,3.0,5.0,82,0.00,,,-99.99,Weather View 32 v60,2013-02-06 15:15:00,
2013-02-06 09:20:00,11.0,6.6,30.18,SSW,202,1.0,5.0,82,0.00,,,-99.99,Weather View 32 v60,2013-02-06 15:20:00,
2013-02-06 09:25:00,12.0,7.6,30.18,SW,225,0.0,5.0,82,0.00,,,-99.99,Weather View 32 v60,2013-02-06 15:25:00,
2013-02-06 09:35:00,13.0,8.5,30.17,SSW,202,3.0,5.0,82,0.00,,,-99.99,Weather View 32 v60,2013-02-06 15:35:00,
2013-02-06 09:40:00,13.0,8.3,30.17,SSE,158,3.0,5.0,81,0.00,,,-99.99,Weather View 32 v60,2013-02-06 15:40:00,
2013-02-06 09:45:00,13.0,8.3,30.17,SSE,158,1.0,5.0,81,0.00,,,-99.99,Weather View 32 v60,2013-02-06 15:45:00,
2013-02-06 09:50:00,13.0,8.0,30.17,SSW,202,1.0,5.0,80,0.00,,,-99.99,Weather View 32 v60,2013-02-06 15:50:00,
2013-02-06 09:55:00,13.0,7.7,30.17,SSW,202,1.0,5.0,79,0.00,,,-99.99,Weather View 32 v60,2013-02-06 15:55:00,
2013-02-06 10:00:00,14.0,8.7,30.17,SSW,202,5.0,6.0,79,0.00,,,-99.99,Weather View 32 v60,2013-02-06 16:00:00,
2013-02-06 10:05:00,14.0,8.7,30.17,SSW,202,2.0,6.0,79,0.00,,,-99.99,Weather View 32 v60,2013-02-06 16:05:00,
2013-02-06 10:10:00,14.0,8.7,30.17,SW,225,3.0,6.0,79,0.00,,,-99.99,Weather View 32 v60,2013-02-06 16:10:00,
2013-02-06 10:15:00,14.0,8.4,30.17,SSW,202,5.0,6.0,78,0.00,,,-99.99,Weather View 32 v60,2013-02-06 16:15:00,
2013-02-06 10:20:00,14.0,8.4,30.17,SSW,202,3.0,6.0,78,0.00,,,-99.99,Weather View 32 v60,2013-02-06 16:20:00,
2013-02-06 10:25:00,14.0,8.4,30.17,SW,225,3.0,6.0,78,0.00,,,-99.99,Weather View 32 v60,2013-02-06 16:25:00,
2013-02-06 10:35:00,15.0,9.4,30.16,SSW,202,2.0,7.0,78,0.00,,,-99.99,Weather View 32 v60,2013-02-06 16:35:00,
2013-02-06 10:40:00,15.0,9.4,30.17,SSW,202,3.0,7.0,78,0.00,,,-99.99,Weather View 32 v60,2013-02-06 16:40:00,
2013-02-06 10:45:00,15.0,9.4,30.16,SSW,202,5.0,7.0,78,0.00,,,-99.99,Weather View 32 v60,2013-02-06 16:45:00,
2013-02-06 10:50:00,15.0,9.7,30.17,SSW,202,5.0,8.0,79,0.00,,,-99.99,Weather View 32 v60,2013-02-06 16:50:00,
2013-02-06 10:55:00,15.0,9.7,30.17,SSW,202,2.0,8.0,79,0.00,,,-99.99,Weather View 32 v60,2013-02-06 16:55:00,
2013-02-06 11:00:00,15.0,9.7,30.17,SSW,202,6.0,8.0,79,0.00,,,-99.99,Weather View 32 v60,2013-02-06 17:00:00,
2013-02-06 11:10:00,15.0,10.0,30.16,SSW,202,3.0,8.0,80,0.00,,,-99.99,Weather View 32 v60,2013-02-06 17:10:00,
2013-02-06 11:15:00,15.0,10.0,30.16,WSW,248,3.0,8.0,80,0.00,,,-99.99,Weather View 32 v60,2013-02-06 17:15:00,
2013-02-06 11:20:00,16.0,10.9,30.16,South,180,3.0,8.0,80,0.00,,,-99.99,Weather View 32 v60,2013-02-06 17:20:00,
2013-02-06 11:25:00,16.0,10.9,30.16,SW,225,4.0,8.0,80,0.00,,,-99.99,Weather View 32 v60,2013-02-06 17:25:00,
2013-02-06 11:30:00,16.0,10.9,30.16,SW,225,3.0,8.0,80,0.00,,,-99.99,Weather View 32 v60,2013-02-06 17:30:00,
2013-02-06 11:35:00,16.0,10.9,30.16,West,270,3.0,8.0,80,0.00,,,-99.99,Weather View 32 v60,2013-02-06 17:35:00,
2013-02-06 11:40:00,16.0,10.9,30.16,SSW,202,3.0,8.0,80,0.00,,,-99.99,Weather View 32 v60,2013-02-06 17:40:00,
2013-02-06 11:50:00,16.0,10.9,30.15,SSW,202,2.0,8.0,80,0.00,,,-99.99,Weather View 32 v60,2013-02-06 17:50:00,
2013-02-06 12:00:00,17.0,11.9,30.15,SSW,202,2.0,8.0,80,0.00,,,-99.99,Weather View 32 v60,2013-02-06 18:00:00,
2013-02-06 12:05:00,17.0,11.9,30.14,South,180,1.0,8.0,80,0.00,,,-99.99,Weather View 32 v60,2013-02-06 18:05:00,
2013-02-06 12:10:00,16.0,10.9,30.14,SSW,202,1.0,8.0,80,0.00,,,-99.99,Weather View 32 v60,2013-02-06 18:10:00,
2013-02-06 12:15:00,16.0,10.9,30.14,SSW,202,1.0,6.0,80,0.00,,,-99.99,Weather View 32 v60,2013-02-06 18:15:00,
2013-02-06 12:20:00,16.0,10.9,30.14,South,180,1.0,6.0,80,0.00,,,-99.99,Weather View 32 v60,2013-02-06 18:20:00,
2013-02-06 12:25:00,16.0,11.2,30.13,South,180,1.0,6.0,81,0.00,,,-99.99,Weather View 32 v60,2013-02-06 18:25:00,
2013-02-06 12:30:00,16.0,11.2,30.13,SW,225,1.0,6.0,81,0.00,,,-99.99,Weather View 32 v60,2013-02-06 18:30:00,
2013-02-06 12:35:00,17.0,12.5,30.12,South,180,2.0,6.0,82,0.00,,,-99.99,Weather View 32 v60,2013-02-06 18:35:00,
2013-02-06 12:45:00,17.0,12.5,30.11,SE,135,3.0,6.0,82,0.00,,,-99.99,Weather View 32 v60,2013-02-06 18:45:00,
2013-02-06 12:50:00,17.0,12.5,30.11,SE,135,5.0,6.0,82,0.00,,,-99.99,Weather View 32 v60,2013-02-06 18:50:00,
2013-02-06 13:00:00,17.0,12.7,30.10,SE,135,5.0,7.0,83,0.00,,,-99.99,Weather View 32 v60,2013-02-06 19:00:00,
2013-02-06 13:05:00,18.0,13.7,30.10,ESE,112,3.0,7.0,83,0.00,,,-99.99,Weather View 32 v60,2013-02-06 19:05:00,
2013-02-06 13:15:00,18.0,13.7,30.10,SSE,158,2.0,7.0,83,0.00,,,-99.99,Weather View 32 v60,2013-02-06 19:15:00,
2013-02-06 13:20:00,18.0,13.7,30.09,SE,135,2.0,7.0,83,0.00,,,-99.99,Weather View 32 v60,2013-02-06 19:20:00,
2013-02-06 13:25:00,19.0,14.7,30.09,SSE,158,5.0,7.0,83,0.00,,,-99.99,Weather View 32 v60,2013-02-06 19:25:00,
2013-02-06 13:30:00,19.0,14.7,30.09,SE,135,3.0,7.0,83,0.00,,,-99.99,Weather View 32 v60,2013-02-06 19:30:00,
2013-02-06 13:35:00,19.0,14.7,30.09,SW,225,3.0,7.0,83,0.00,,,-99.99,Weather View 32 v60,2013-02-06 19:35:00,
2013-02-06 13:40:00,19.0,14.7,30.08,SSE,158,3.0,7.0,83,0.00,,,-99.99,Weather View 32 v60,2013-02-06 19:40:00,
2013-02-06 13:50:00,19.0,14.7,30.08,East,90,4.0,7.0,83,0.00,,,-99.99,Weather View 32 v60,2013-02-06 19:50:00,
2013-02-06 14:00:00,20.0,15.7,30.08,ESE,112,4.0,7.0,83,0.00,,,-99.99,Weather View 32 v60,2013-02-06 20:00:00,
2013-02-06 14:05:00,20.0,15.7,30.07,SSE,158,3.0,7.0,83,0.00,,,-99.99,Weather View 32 v60,2013-02-06 20:05:00,
2013-02-06 14:15:00,19.0,14.7,30.07,East,90,3.0,7.0,83,0.00,,,-99.99,Weather View 32 v60,2013-02-06 20:15:00,
2013-02-06 14:20:00,19.0,14.7,30.06,SSE,158,3.0,7.0,83,0.00,,,-99.99,Weather View 32 v60,2013-02-06 20:20:00,
2013-02-06 14:30:00,19.0,14.7,30.05,SSE,158,2.0,8.0,83,0.00,,,-99.99,Weather View 32 v60,2013-02-06 20:30:00,
2013-02-06 14:35:00,19.0,15.0,30.06,SE,135,3.0,8.0,84,0.00,,,-99.99,Weather View 32 v60,2013-02-06 20:35:00,
2013-02-06 14:45:00,19.0,15.0,30.06,SSE,158,2.0,10.0,84,0.00,,,-99.99,Weather View 32 v60,2013-02-06 20:45:00,
2013-02-06 14:50:00,19.0,15.0,30.05,SE,135,5.0,10.0,84,0.00,,,-99.99,Weather View 32 v60,2013-02-06 20:50:00,
2013-02-06 14:55:00,19.0,14.7,30.04,SSE,158,6.0,10.0,83,0.00,,,-99.99,Weather View 32 v60,2013-02-06 20:55:00,
2013-02-06 15:02:00,19.0,14.7,30.04,South,180,3.0,10.0,83,0.00,,,-99.99,Weather View 32 v60,2013-02-06 21:02:00,
2013-02-06 15:10:00,19.0,14.7,30.04,SE,135,5.0,10.0,83,0.00,,,-99.99,Weather View 32 v60,2013-02-06 21:10:00,
2013-02-06 15:15:00,19.0,14.7,30.04,ESE,112,5.0,10.0,83,0.00,,,-99.99,Weather View 32 v60,2013-02-06 21:15:00,
2013-02-06 15:20:00,19.0,14.7,30.04,ESE,112,8.0,10.0,83,0.00,,,-99.99,Weather View 32 v60,2013-02-06 21:20:00,
2013-02-06 15:25:00,19.0,14.7,30.05,SE,135,3.0,10.0,83,0.00,,,-99.99,Weather View 32 v60,2013-02-06 21:25:00,
2013-02-06 15:35:00,19.0,14.7,30.05,ESE,112,4.0,10.0,83,0.00,,,-99.99,Weather View 32 v60,2013-02-06 21:35:00,
2013-02-06 15:40:00,19.0,14.7,30.05,SE,135,2.0,10.0,83,0.00,,,-99.99,Weather View 32 v60,2013-02-06 21:40:00,
2013-02-06 15:45:00,19.0,14.7,30.04,ESE,112,3.0,10.0,83,0.00,,,-99.99,Weather View 32 v60,2013-02-06 21:45:00,
2013-02-06 15:50:00,19.0,14.7,30.04,SE,135,6.0,10.0,83,0.00,,,-99.99,Weather View 32 v60,2013-02-06 21:50:00,
2013-02-06 15:55:00,19.0,14.4,30.05,WNW,292,2.0,10.0,82,0.00,,,-99.99,Weather View 32 v60,2013-02-06 21:55:00,
2013-02-06 16:00:00,19.0,14.4,30.04,East,90,4.0,10.0,82,0.00,,,-99.99,Weather View 32 v60,2013-02-06 22:00:00,
2013-02-06 16:05:00,19.0,14.4,30.04,SSE,158,2.0,10.0,82,0.00,,,-99.99,Weather View 32 v60,2013-02-06 22:05:00,
2013-02-06 16:10:00,19.0,14.4,30.04,ESE,112,3.0,10.0,82,0.00,,,-99.99,Weather View 32 v60,2013-02-06 22:10:00,
2013-02-06 16:20:00,19.0,14.4,30.04,SE,135,3.0,10.0,82,0.00,,,-99.99,Weather View 32 v60,2013-02-06 22:20:00,
2013-02-06 16:25:00,20.0,15.4,30.04,ESE,112,2.0,8.0,82,0.00,,,-99.99,Weather View 32 v60,2013-02-06 22:25:00,
2013-02-06 16:35:00,20.0,15.4,30.04,East,90,3.0,8.0,82,0.00,,,-99.99,Weather View 32 v60,2013-02-06 22:35:00,
2013-02-06 16:40:00,20.0,15.4,30.04,SSE,158,2.0,8.0,82,0.00,,,-99.99,Weather View 32 v60,2013-02-06 22:40:00,
2013-02-06 16:50:00,20.0,15.4,30.04,SSE,158,5.0,8.0,82,0.00,,,-99.99,Weather View 32 v60,2013-02-06 22:50:00,
2013-02-06 17:00:00,20.0,15.4,30.04,East,90,4.0,7.0,82,0.00,,,-99.99,Weather View 32 v60,2013-02-06 23:00:00,
2013-02-06 17:05:00,20.0,15.4,30.04,ESE,112,6.0,7.0,82,0.00,,,-99.99,Weather View 32 v60,2013-02-06 23:05:00,
2013-02-06 17:10:00,20.0,15.4,30.04,SE,135,3.0,7.0,82,0.00,,,-99.99,Weather View 32 v60,2013-02-06 23:10:00,
2013-02-06 17:15:00,20.0,15.4,30.04,SSE,158,3.0,7.0,82,0.00,,,-99.99,Weather View 32 v60,2013-02-06 23:15:00,
2013-02-06 17:20:00,20.0,15.4,30.04,SE,135,3.0,7.0,82,0.00,,,-99.99,Weather View 32 v60,2013-02-06 23:20:00,
2013-02-06 17:25:00,20.0,15.4,30.04,SSE,158,2.0,7.0,82,0.00,,,-99.99,Weather View 32 v60,2013-02-06 23:25:00,
2013-02-06 17:35:00,20.0,15.4,30.05,SSW,202,1.0,7.0,82,0.00,,,-99.99,Weather View 32 v60,2013-02-06 23:35:00,
2013-02-06 17:40:00,20.0,15.4,30.05,SE,135,2.0,7.0,82,0.00,,,-99.99,Weather View 32 v60,2013-02-06 23:40:00,
2013-02-06 17:45:00,20.0,15.4,30.05,SSE,158,2.0,7.0,82,0.00,,,-99.99,Weather View 32 v60,2013-02-06 23:45:00,
2013-02-06 17:50:00,20.0,15.4,30.05,SE,135,5.0,7.0,82,0.00,,,-99.99,Weather View 32 v60,2013-02-06 23:50:00,
2013-02-06 18:00:00,20.0,15.4,30.05,SE,135,3.0,7.0,82,0.00,,,-99.99,Weather View 32 v60,2013-02-07 00:00:00,
2013-02-06 18:05:00,20.0,15.4,30.05,SSW,202,1.0,7.0,82,0.00,,,-99.99,Weather View 32 v60,2013-02-07 00:05:00,
2013-02-06 18:10:00,20.0,15.4,30.06,South,180,1.0,7.0,82,0.00,,,-99.99,Weather View 32 v60,2013-02-07 00:10:00,
2013-02-06 18:20:00,20.0,15.4,30.06,SSE,158,2.0,6.0,82,0.00,,,-99.99,Weather View 32 v60,2013-02-07 00:20:00,
2013-02-06 18:25:00,20.0,15.4,30.06,ENE,68,3.0,6.0,82,0.00,,,-99.99,Weather View 32 v60,2013-02-07 00:25:00,
2013-02-06 18:30:00,20.0,15.4,30.06,SE,135,1.0,6.0,82,0.00,,,-99.99,Weather View 32 v60,2013-02-07 00:30:00,
2013-02-06 18:35:00,20.0,15.4,30.06,ESE,112,3.0,6.0,82,0.00,,,-99.99,Weather View 32 v60,2013-02-07 00:35:00,
2013-02-06 18:40:00,20.0,15.4,30.06,SE,135,2.0,6.0,82,0.00,,,-99.99,Weather View 32 v60,2013-02-07 00:40:00,
2013-02-06 18:50:00,20.0,15.4,30.06,ESE,112,3.0,7.0,82,0.00,,,-99.99,Weather View 32 v60,2013-02-07 00:50:00,
2013-02-06 18:55:00,20.0,15.4,30.06,ESE,112,3.0,7.0,82,0.00,,,-99.99,Weather View 32 v60,2013-02-07 00:55:00,
2013-02-06 19:00:00,20.0,15.4,30.06,ESE,112,3.0,7.0,82,0.00,,,-99.99,Weather View 32 v60,2013-02-07 01:00:00,
2013-02-06 19:05:00,20.0,15.4,30.06,SSE,158,2.0,7.0,82,0.00,,,-99.99,Weather View 32 v60,2013-02-07 01:05:00,
2013-02-06 19:10:00,20.0,15.4,30.06,ESE,112,3.0,7.0,82,0.00,,,-99.99,Weather View 32 v60,2013-02-07 01:10:00,
2013-02-06 19:15:00,20.0,15.4,30.06,East,90,3.0,7.0,82,0.00,,,-99.99,Weather View 32 v60,2013-02-07 01:15:00,
2013-02-06 19:20:00,20.0,15.4,30.06,SSE,158,2.0,7.0,82,0.00,,,-99.99,Weather View 32 v60,2013-02-07 01:20:00,
2013-02-06 19:30:00,20.0,15.4,30.07,South,180,1.0,7.0,82,0.00,,,-99.99,Weather View 32 v60,2013-02-07 01:30:00,
2013-02-06 19:35:00,20.0,15.7,30.07,East,90,2.0,7.0,83,0.00,,,-99.99,Weather View 32 v60,2013-02-07 01:35:00,
2013-02-06 19:45:00,20.0,15.4,30.07,SE,135,2.0,7.0,82,0.00,,,-99.99,Weather View 32 v60,2013-02-07 01:45:00,
2013-02-06 19:50:00,20.0,15.4,30.07,SE,135,1.0,7.0,82,0.00,,,-99.99,Weather View 32 v60,2013-02-07 01:50:00,
2013-02-06 19:55:00,20.0,15.4,30.07,SSE,158,1.0,7.0,82,0.00,,,-99.99,Weather View 32 v60,2013-02-07 01:55:00,
2013-02-06 20:05:00,20.0,15.7,30.07,ESE,112,3.0,7.0,83,0.00,,,-99.99,Weather View 32 v60,2013-02-07 02:05:00,
2013-02-06 20:15:00,21.0,16.7,30.07,ESE,112,3.0,7.0,83,0.00,,,-99.99,Weather View 32 v60,2013-02-07 02:15:00,
2013-02-06 20:20:00,21.0,16.7,30.07,SE,135,1.0,6.0,83,0.00,,,-99.99,Weather View 32 v60,2013-02-07 02:20:00,
2013-02-06 20:30:00,21.0,16.7,30.07,SE,135,2.0,6.0,83,0.00,,,-99.99,Weather View 32 v60,2013-02-07 02:30:00,
2013-02-06 20:35:00,21.0,16.7,30.07,ESE,112,3.0,6.0,83,0.00,,,-99.99,Weather View 32 v60,2013-02-07 02:35:00,
2013-02-06 20:45:00,21.0,16.7,30.07,ENE,68,1.0,6.0,83,0.00,,,-99.99,Weather View 32 v60,2013-02-07 02:45:00,
2013-02-06 20:50:00,21.0,16.7,30.07,East,90,3.0,6.0,83,0.00,,,-99.99,Weather View 32 v60,2013-02-07 02:50:00,
2013-02-06 20:55:00,21.0,16.7,30.07,SE,135,3.0,6.0,83,0.00,,,-99.99,Weather View 32 v60,2013-02-07 02:55:00,
2013-02-06 21:05:00,21.0,16.7,30.07,ESE,112,3.0,6.0,83,0.00,,,-99.99,Weather View 32 v60,2013-02-07 03:05:00,
2013-02-06 21:15:00,21.0,16.7,30.08,NE,45,2.0,6.0,83,0.00,,,-99.99,Weather View 32 v60,2013-02-07 03:15:00,
2013-02-06 21:20:00,21.0,16.7,30.09,SE,135,3.0,6.0,83,0.00,,,-99.99,Weather View 32 v60,2013-02-07 03:20:00,
2013-02-06 21:25:00,21.0,16.7,30.09,East,90,3.0,6.0,83,0.00,,,-99.99,Weather View 32 v60,2013-02-07 03:25:00,
2013-02-06 21:35:00,21.0,16.7,30.09,SSE,158,2.0,6.0,83,0.00,,,-99.99,Weather View 32 v60,2013-02-07 03:35:00,
2013-02-06 21:40:00,21.0,16.7,30.09,East,90,2.0,6.0,83,0.00,,,-99.99,Weather View 32 v60,2013-02-07 03:40:00,
2013-02-06 21:45:00,21.0,16.7,30.09,SE,135,2.0,6.0,83,0.00,,,-99.99,Weather View 32 v60,2013-02-07 03:45:00,
2013-02-06 21:50:00,21.0,16.7,30.09,ESE,112,3.0,6.0,83,0.00,,,-99.99,Weather View 32 v60,2013-02-07 03:50:00,
2013-02-06 21:55:00,21.0,16.7,30.09,East,90,3.0,6.0,83,0.00,,,-99.99,Weather View 32 v60,2013-02-07 03:55:00,
2013-02-06 22:00:00,21.0,16.7,30.09,ESE,112,1.0,6.0,83,0.00,,,-99.99,Weather View 32 v60,2013-02-07 04:00:00,
2013-02-06 22:05:00,21.0,16.7,30.10,East,90,4.0,6.0,83,0.00,,,-99.99,Weather View 32 v60,2013-02-07 04:05:00,
2013-02-06 22:10:00,21.0,16.7,30.09,SE,135,1.0,6.0,83,0.00,,,-99.99,Weather View 32 v60,2013-02-07 04:10:00,
2013-02-06 22:15:00,21.0,16.9,30.10,East,90,3.0,7.0,84,0.00,,,-99.99,Weather View 32 v60,2013-02-07 04:15:00,
2013-02-06 22:20:00,21.0,16.9,30.09,ESE,112,6.0,6.0,84,0.00,,,-99.99,Weather View 32 v60,2013-02-07 04:20:00,
2013-02-06 22:25:00,21.0,17.2,30.11,North,0,4.0,8.0,85,0.00,,,-99.99,Weather View 32 v60,2013-02-07 04:25:00,
2013-02-06 22:30:00,21.0,16.9,30.10,East,90,3.0,6.0,84,0.00,,,-99.99,Weather View 32 v60,2013-02-07 04:30:00,
2013-02-06 22:35:00,21.0,16.9,30.10,East,90,3.0,6.0,84,0.00,,,-99.99,Weather View 32 v60,2013-02-07 04:35:00,
2013-02-06 22:40:00,21.0,17.2,30.11,East,90,3.0,10.0,85,0.00,,,-99.99,Weather View 32 v60,2013-02-07 04:40:00,
2013-02-06 22:45:00,21.0,16.9,30.09,NE,45,4.0,6.0,84,0.00,,,-99.99,Weather View 32 v60,2013-02-07 04:45:00,
2013-02-06 22:50:00,21.0,16.9,30.09,East,90,5.0,6.0,84,0.00,,,-99.99,Weather View 32 v60,2013-02-07 04:50:00,
2013-02-06 22:55:00,21.0,17.5,30.12,ESE,112,4.0,10.0,86,0.00,,,-99.99,Weather View 32 v60,2013-02-07 04:55:00,
2013-02-06 22:59:00,21.0,16.9,30.10,East,90,2.0,6.0,84,0.00,,,-99.99,Weather View 32 v60,2013-02-07 04:59:00,
2013-02-06 23:00:00,21.0,17.5,30.12,East,90,3.0,10.0,86,0.00,,,-99.99,Weather View 32 v60,2013-02-07 05:00:00,
2013-02-06 23:05:00,21.0,17.5,30.12,SSE,158,2.0,10.0,86,0.00,,,-99.99,Weather View 32 v60,2013-02-07 05:05:00,
2013-02-06 23:10:00,21.0,17.5,30.12,East,90,3.0,10.0,86,0.00,,,-99.99,Weather View 32 v60,2013-02-07 05:10:00,
2013-02-06 23:15:00,21.0,17.5,30.12,ENE,68,3.0,10.0,86,0.00,,,-99.99,Weather View 32 v60,2013-02-07 05:15:00,
2013-02-06 23:20:00,21.0,17.5,30.12,ESE,112,5.0,10.0,86,0.00,,,-99.99,Weather View 32 v60,2013-02-07 05:20:00,
2013-02-06 23:25:00,21.0,17.5,30.12,ESE,112,3.0,10.0,86,0.00,,,-99.99,Weather View 32 v60,2013-02-07 05:25:00,
2013-02-06 23:30:00,21.0,17.7,30.11,East,90,3.0,11.0,87,0.00,,,-99.99,Weather View 32 v60,2013-02-07 05:30:00,
2013-02-06 23:35:00,21.0,17.7,30.11,East,90,2.0,11.0,87,0.00,,,-99.99,Weather View 32 v60,2013-02-07 05:35:00,
2013-02-06 23:40:00,21.0,17.7,30.12,NNE,22,3.0,11.0,87,0.00,,,-99.99,Weather View 32 v60,2013-02-07 05:40:00,
2013-02-06 23:45:00,21.0,17.7,30.12,East,90,3.0,11.0,87,0.00,,,-99.99,Weather View 32 v60,2013-02-07 05:45:00,
2013-02-06 23:50:00,21.0,17.7,30.12,ENE,68,4.0,11.0,87,0.00,,,-99.99,Weather View 32 v60,2013-02-07 05:50:00,
2013-02-06 23:55:00,21.0,17.7,30.12,ESE,112,2.0,11.0,87,0.00,,,-99.99,Weather View 32 v60,2013-02-07 05:55:00,